User: anonymous
Location: Lake Runnemede Observatory
(43.4843°N, 72.3851°W)
Time: 12:23:15
(UTC-04:00)
Language:

SPOT 5 - Orbit

View from above orbital plane
View from above orbital plane
View from above satellite
View from above satellite

Ground track
Ground track

The orbit data is extracted from the following two-line orbital elements,

1 27421U 02021A   14209.08229525  .00000216  00000-0  12142-3 0  7800
2 27421 098.5597 270.9110 0001532 090.2068 020.2242 14.20102395634122
Epoch (UTC): 28 July 2014 01:58:30
Eccentricity: 0.0001532
inclination: 98.5597°
perigee height: 824 km
apogee height: 826 km
right ascension of ascending node: 270.9110°
argument of perigee: 90.2068°
revolutions per day: 14.20102395
mean anomaly at epoch: 20.2242°
orbit number at epoch: 63412

The dashed part of the orbit path shows where the satellite is in the earth's shadow,  

DLR